DW8587 Weather Reports


Display with metric or nautical units.
time (UTC)temp
F
wind
direction
speed
MPH
gust
MPH
rain 1hr
in
rain 24hr
in
rain mn
in
humidity
%
barometer
mb
20260510131603 58 121 2.0 6.0 0.00 0.47 0.47 84 1012.7
20260510130057 58 148 2.0 5.0 0.00 0.47 0.47 85 1012.8
20260510124558 58 148 2.0 7.0 0.00 0.47 0.47 87 1012.8
20260510123101 58 115 0.0 6.0 0.00 0.47 0.47 87 1012.9
20260510121551 58 37 3.0 9.0 0.01 0.47 0.47 87 1013.1
20260510120052 58 29 3.0 6.0 0.02 0.47 0.47 87 1013.2
20260510114551 58 36 3.0 6.0 0.03 0.47 0.47 88 1013.2
20260510113049 58 28 2.0 5.0 0.04 0.47 0.47 89 1013.3
20260510111551 58 42 1.0 4.0 0.04 0.46 0.46 89 1013.4
20260510110049 59 26 1.0 6.0 0.06 0.46 0.46 91 1013.3
20260510104548 59 29 2.0 5.0 0.06 0.44 0.44 91 1013.5
20260510103045 58 333 2.0 4.0 0.06 0.43 0.43 90 1013.5
20260510101542 58 44 2.0 5.0 0.05 0.42 0.42 90 1013.7
20260510100042 58 9 2.0 4.0 0.03 0.40 0.40 90 1013.7
20260510094543 58 59 1.0 3.0 0.02 0.39 0.39 89 1013.8
20260510093040 58 31 1.0 4.0 0.02 0.38 0.38 89 1013.9
20260510091540 58 30 2.0 5.0 0.04 0.37 0.37 90 1013.7
20260510090039 57 28 4.0 6.0 0.05 0.37 0.37 91 1013.8
20260510084537 57 37 2.0 5.0 0.08 0.36 0.36 92 1013.8
20260510083034 57 36 1.0 3.0 0.12 0.35 0.35 92 1013.8
20260510081541 57 346 1.0 3.0 0.11 0.33 0.33 92 1013.7
20260510080033 57 36 2.0 6.0 0.10 0.32 0.32 91 1013.7
20260510074533 57 44 1.0 5.0 0.06 0.28 0.28 91 1013.6
20260510073034 57 44 2.0 5.0 0.02 0.24 0.24 90 1013.5
20260510071531 58 348 2.0 5.0 0.00 0.22 0.22 90 1013.3
20260510070031 57 360 3.0 8.0 0.00 0.22 0.22 90 1013.2
20260510064538 57 360 2.0 5.0 0.00 0.22 0.22 91 1013.3
20260510063034 57 22 1.0 4.0 0.00 0.22 0.22 91 1013.3
20260510061523 57 333 2.0 4.0 0.00 0.22 0.22 91 1013.2
20260510060025 57 275 0.0 3.0 0.00 0.22 0.22 90 1013.2
20260510054524 57 246 0.0 3.0 0.01 0.22 0.22 90 1013.0
20260510053019 57 260 0.0 4.0 0.01 0.22 0.22 90 1013.0
20260510051519 57 267 0.0 4.0 0.01 0.22 0.22 90 1012.8
20260510050018 57 337 1.0 3.0 0.01 0.22 0.22 90 1012.5
20260510044517 57 351 0.0 3.0 0.00 0.21 0.21 89 1012.3
20260510043017 57 346 2.0 4.0 0.00 0.21 0.21 89 1012.0
20260510041516 57 31 4.0 8.0 0.00 0.21 0.21 89 1012.0
20260510040017 57 41 2.0 5.0 0.00 0.21 0.21 89 1012.1
20260510034515 57 360 2.0 9.0 0.00 0.21 0.21 88 1012.1
20260510033013 57 16 4.0 8.0 0.00 0.21 0.21 90 1012.2
20260510031516 57 32 1.0 4.0 0.00 0.21 0.21 90 1012.4
20260510030011 57 26 2.0 6.0 0.00 0.21 0.21 90 1012.6
20260510024507 57 16 2.0 3.0 0.00 0.21 0.21 89 1012.7
20260510023006 57 34 2.0 9.0 0.01 0.21 0.21 89 1012.7
20260510021504 58 41 3.0 9.0 0.01 0.21 0.21 87 1013.0
20260510020005 58 38 6.0 12.0 0.02 0.21 0.21 87 1013.2
20260510014502 57 30 7.0 10.0 0.10 0.21 0.21 89 1013.3
20260510013057 57 10 2.0 4.0 0.20 0.20 0.20 87 1013.5
20260510011557 58 34 2.0 3.0 0.20 0.20 0.20 86 1013.6
20260510010055 59 32 3.0 5.0 0.20 0.20 0.20 84 1013.4
20260510004553 59 120 1.0 4.0 0.11 0.11 0.11 79 1013.9
20260510003054 59 355 1.0 5.0 0.00 0.00 0.00 77 1013.4
20260510001553 58 17 3.0 6.0 0.00 0.00 0.00 78 1013.6
20260510000051 58 40 4.0 6.0 0.00 0.00 0.00 79 1013.8
20260509234547 57 43 3.0 4.0 0.00 0.00 0.00 79 1013.9
20260509233051 57 30 1.0 3.0 0.00 0.00 0.00 79 1013.9
20260509231546 57 22 2.0 6.0 0.00 0.00 0.00 79 1014.0
20260509230044 58 9 3.0 5.0 0.00 0.00 0.00 79 1013.9
20260509224553 58 47 2.0 5.0 0.00 0.00 0.00 79 1014.1
20260509223041 58 351 3.0 5.0 0.00 0.00 0.00 78 1014.1
20260509221554 59 38 2.0 4.0 0.00 0.00 0.00 77 1014.0
20260509220036 59 30 2.0 5.0 0.00 0.00 0.00 77 1014.1
20260509214535 59 40 4.0 8.0 0.00 0.00 0.00 76 1014.0
20260509213034 60 40 1.0 3.0 0.00 0.00 0.00 76 1014.0
20260509211534 60 48 2.0 4.0 0.00 0.00 0.00 75 1013.9
20260509210034 60 36 1.0 4.0 0.00 0.00 0.00 75 1013.9
20260509204533 61 360 3.0 4.0 0.00 0.00 0.00 74 1013.9
20260509203032 61 360 2.0 4.0 0.00 0.00 0.00 73 1013.8
20260509201539 62 46 3.0 4.0 0.00 0.00 0.00 72 1013.9
20260509200031 63 44 1.0 3.0 0.00 0.00 0.00 70 1013.7
20260509194531 64 44 0.0 2.0 0.00 0.00 0.00 69 1013.5
20260509193030 64 44 3.0 5.0 0.00 0.00 0.00 67 1013.2
20260509191530 65 360 2.0 5.0 0.00 0.00 0.00 64 1013.1
20260509190029 67 37 1.0 3.0 0.00 0.00 0.00 61 1013.1
20260509184528 69 251 0.0 0.0 0.00 0.00 0.00 53 1013.1
20260509183028 70 251 0.0 0.0 0.00 0.00 0.00 53 1013.2
20260509181527 71 251 0.0 0.0 0.00 0.00 0.00 51 1013.1
20260509180027 72 251 0.0 0.0 0.00 0.00 0.00 47 1013.1
20260509174527 73 251 0.0 0.0 0.00 0.00 0.00 47 1013.0
20260509173025 73 251 0.0 0.0 0.00 0.00 0.00 41 1013.0
20260509171535 74 264 0.0 0.0 0.00 0.00 0.00 43 1013.0
20260509170030 74 300 2.0 4.0 0.00 0.00 0.00 41 1013.0
20260509164524 75 229 1.0 3.0 0.00 0.00 0.00 41 1013.1
20260509163025 75 265 1.0 8.0 0.00 0.00 0.00 41 1013.2
20260509161519 75 337 1.0 6.0 0.00 0.00 0.00 41 1013.3
20260509160019 74 142 3.0 10.0 0.00 0.00 0.00 43 1013.4
20260509154519 75 222 4.0 10.0 0.00 0.00 0.00 43 1013.5
20260509153014 74 242 2.0 8.0 0.00 0.00 0.00 43 1013.6
20260509151512 74 205 3.0 8.0 0.00 0.00 0.00 47 1013.7
20260509150018 74 232 4.0 9.0 0.00 0.00 0.00 45 1013.6
20260509144514 73 171 4.0 9.0 0.00 0.00 0.00 44 1013.6
20260509143010 73 152 5.0 11.0 0.00 0.00 0.00 46 1013.7
20260509141511 74 192 6.0 10.0 0.00 0.00 0.00 49 1013.7
20260509140007 73 331 2.0 8.0 0.00 0.00 0.00 48 1014.0
20260509134509 73 151 6.0 10.0 0.00 0.00 0.00 48 1014.2